Date,TemperatureHighF,TemperatureAvgF,TemperatureLowF,DewpointHighF,DewpointAvgF,DewpointLowF,HumidityHigh,HumidityAvg,HumidityLow,PressureMaxIn,PressureMinIn,WindSpeedMaxMPH,WindSpeedAvgMPH,GustSpeedMaxMPH,PrecipitationSumIn
2013-2-1,16.6,14.6,11.8,13.5,11.5,8.4,89,87,84,30.24,29.92,16,3,19,0.00
2013-2-2,18.9,14.0,2.9,15.7,10.1,-1.8,89,84,77,30.16,30.00,8,1,9,0.00
2013-2-3,20.5,15.2,7.1,17.4,11.9,3.5,88,87,85,30.03,29.89,18,1,19,0.00
2013-2-4,25.0,17.9,8.3,19.4,13.8,4.0,89,84,76,30.02,29.89,7,0,7,0.00
2013-2-5,29.4,19.7,4.2,28.0,16.5,0.7,96,87,82,30.01,29.77,17,3,20,0.00
2013-2-6,34.6,25.3,10.9,24.4,18.8,7.5,91,77,58,30.25,30.01,12,1,13,0.03
2013-2-7,33.3,30.8,28.3,30.7,26.2,21.4,91,83,74,30.20,29.85,12,3,14,0.00
2013-2-8,32.9,27.7,12.4,28.6,22.7,7.2,92,82,65,30.37,29.85,18,3,19,0.06
2013-2-9,32.9,20.4,5.1,22.6,14.0,1.2,89,77,60,30.43,30.19,11,1,12,0.07
2013-2-10,41.8,30.5,19.2,39.9,26.3,15.3,93,84,74,30.19,29.53,17,4,20,0.28
2013-2-11,44.4,35.8,30.5,42.4,31.9,24.8,93,86,74,29.87,29.47,34,9,35,0.12
2013-2-12,30.5,29.0,27.1,25.6,23.7,21.8,88,81,78,30.04,29.87,21,3,23,0.00
2013-2-13,39.5,31.4,23.6,30.4,25.8,19.7,89,80,66,29.91,29.71,11,1,12,0.10
2013-2-14,41.8,33.3,26.5,35.9,30.1,22.9,92,88,75,29.90,29.60,24,4,28,0.16
2013-2-15,28.9,24.7,21.1,23.7,17.8,14.6,86,75,59,30.14,29.89,15,2,17,0.00
2013-2-16,23.7,18.5,9.9,17.6,13.9,5.6,88,82,66,30.12,30.04,15,1,17,0.00
2013-2-17,26.3,15.0,1.5,12.4,7.0,-2.5,87,71,50,30.24,30.12,8,0,8,0.01
2013-2-18,46.4,35.0,19.6,41.0,25.3,11.3,90,68,54,30.13,29.39,21,6,21,0.15
2013-2-19,43.1,25.5,16.8,40.7,22.6,13.6,91,88,86,29.98,29.34,28,9,30,0.09
2013-2-20,23.2,19.6,15.7,16.9,14.2,11.8,86,79,70,30.30,29.97,23,7,24,0.00
2013-2-21,28.6,23.7,20.8,19.8,16.8,13.9,80,75,66,30.38,30.15,21,2,26,0.01
2013-2-22,33.2,26.9,20.8,31.3,23.7,15.0,93,88,77,30.17,29.83,21,4,26,0.00
2013-2-23,31.7,29.0,25.1,29.9,26.2,22.1,93,89,84,29.90,29.81,20,3,20,0.00
2013-2-24,38.6,30.6,21.9,30.3,25.2,18.0,91,81,65,30.14,29.88,14,2,16,0.15
2013-2-25,41.7,29.4,15.5,30.5,21.3,12.4,96,73,51,30.22,30.07,8,0,9,0.03
2013-2-26,35.8,32.2,28.8,31.7,26.1,22.1,93,78,65,30.10,29.50,29,5,31,0.07
2013-2-27,37.8,35.0,33.4,36.2,33.1,31.6,94,93,91,29.60,29.46,8,1,9,0.47
2013-2-28,38.2,34.3,30.8,32.4,29.8,24.8,92,83,75,30.00,29.60,17,3,18,0.15